Location: Newark
(27.9675°N, 86.8869°E)
Time: 01:30:13
(UTC+00:00)

Altair - Pass Details

Date: 30 October 2019
Orbit: 1502 x 1682 km, 47.2° (Epoch: 20 November)

Event Time Altitude Azimuth Distance (km) Brightness Sun altitude
Rises 06:29:51 0° 307° (NW) 4,742 9.9 47.5°
Reaches altitude 10° 06:33:37 10° 319° (NW) 3,786 9.4 47.4°
Maximum altitude 06:41:29 27° 15° (NNE) 2,733 8.7 46.9°
Drops below altitude 10° 06:49:34 10° 69° (ENE) 3,897 9.5 46.4°
Sets 06:53:30 0° 82° (E) 4,904 9.9 46.1°
